Location: Bismarck
(46.7731°N, 100.8200°W)
Time: 06:12:59
(UTC-06:00)

ISS - Visible Passes

Search period start: 24 November 2014 00:00
Search period end: 04 December 2014 00:00
Orbit: 408 x 417 km, 51.6° (Epoch: 24 November)

Date Brightness Start Highest point End Pass type
(mag) Time Alt. Az. Time Alt. Az. Time Alt. Az.
24 Nov -0.2 05:04:49 16° ENE 05:04:49 16° ENE 05:05:36 10° E visible
24 Nov -3.3 06:37:39 27° WNW 06:39:17 68° SSW 06:42:34 10° SE visible
25 Nov -2.9 05:50:00 62° E 05:50:00 62° E 05:52:49 10° ESE visible
25 Nov -1.4 07:23:26 10° W 07:25:51 19° SW 07:28:15 10° S visible
26 Nov -0.1 05:02:21 14° E 05:02:21 14° E 05:02:55 10° E visible
26 Nov -2.2 06:35:10 25° WSW 06:36:10 30° SW 06:39:07 10° SSE visible
27 Nov -1.9 05:47:32 32° SSE 05:47:32 32° SSE 05:49:35 10° SE visible
28 Nov -1.1 06:32:45 14° SW 06:32:45 14° SW 06:34:26 10° SSW visible
29 Nov -0.5 05:45:10 12° S 05:45:10 12° S 05:45:32 10° SSE visible
